GEFSNGP_prec_meanprecacc_270.txt.gz
Total_Precipitation_Accumulation
0.37 0.39 0.51 0.55 0.47 0.47 0.57 0.67 0.83 0.78 0.74 0.60 0.57 0.62 0.65 0.63 0.58 0.55 0.48 0.41 0.42 0.44 0.49 0.52 0.55 0.60 0.64 0.60 0.65 0.73 0.86 0.98 1.03 1.10 1.14 1.07 0.97 0.92 0.96 0.93 0.91 1.05 1.21 1.36
0.28 0.28 0.37 0.44 0.42 0.43 0.44 0.48 0.59 0.64 0.62 0.49 0.45 0.45 0.47 0.45 0.39 0.41 0.41 0.35 0.32 0.34 0.37 0.38 0.40 0.43 0.45 0.52 0.66 0.70 0.77 0.87 1.06 1.13 1.06 0.98 0.88 0.86 0.87 0.84 0.82 0.91 1.05 1.22
0.43 0.33 0.38 0.61 0.57 0.57 0.59 0.53 0.54 0.48 0.39 0.26 0.26 0.28 0.32 0.33 0.32 0.37 0.36 0.31 0.28 0.29 0.31 0.32 0.35 0.41 0.46 0.53 0.63 0.64 0.70 0.85 1.05 1.06 0.97 0.91 0.91 0.93 0.88 0.84 0.85 0.90 0.94 0.96
0.53 0.52 0.82 0.93 0.65 0.62 0.59 0.39 0.25 0.19 0.17 0.16 0.22 0.21 0.20 0.22 0.25 0.28 0.28 0.24 0.23 0.24 0.25 0.26 0.29 0.35 0.40 0.46 0.48 0.53 0.60 0.71 0.89 0.92 0.89 0.92 0.92 0.87 0.80 0.74 0.72 0.76 0.80 0.85
0.62 0.64 0.78 0.71 0.46 0.39 0.40 0.29 0.13 0.11 0.12 0.14 0.17 0.16 0.13 0.14 0.15 0.16 0.17 0.14 0.14 0.16 0.19 0.21 0.19 0.22 0.27 0.30 0.32 0.36 0.47 0.58 0.70 0.72 0.77 0.78 0.76 0.77 0.72 0.67 0.66 0.67 0.70 0.79
0.75 0.86 0.82 0.43 0.24 0.23 0.32 0.41 0.16 0.12 0.12 0.10 0.11 0.15 0.11 0.08 0.09 0.09 0.10 0.09 0.08 0.10 0.14 0.18 0.16 0.17 0.18 0.23 0.26 0.28 0.38 0.49 0.59 0.63 0.65 0.65 0.70 0.73 0.72 0.68 0.66 0.66 0.67 0.69
0.72 0.93 0.74 0.34 0.22 0.26 0.44 0.52 0.25 0.16 0.12 0.09 0.08 0.09 0.07 0.07 0.07 0.07 0.07 0.07 0.07 0.07 0.12 0.16 0.17 0.15 0.13 0.17 0.20 0.24 0.29 0.39 0.47 0.53 0.60 0.68 0.76 0.77 0.79 0.75 0.70 0.68 0.73 0.74
0.68 0.85 0.77 0.37 0.34 0.42 0.43 0.32 0.25 0.18 0.14 0.10 0.07 0.05 0.04 0.04 0.05 0.06 0.06 0.06 0.06 0.07 0.13 0.15 0.16 0.15 0.12 0.14 0.19 0.21 0.21 0.28 0.40 0.50 0.57 0.67 0.79 0.84 0.81 0.79 0.78 0.77 0.77 0.78
0.75 0.85 0.58 0.40 0.41 0.39 0.33 0.31 0.22 0.14 0.12 0.10 0.07 0.05 0.03 0.03 0.04 0.05 0.06 0.06 0.06 0.08 0.11 0.10 0.12 0.13 0.13 0.15 0.16 0.16 0.18 0.22 0.30 0.36 0.40 0.50 0.60 0.72 0.77 0.76 0.74 0.74 0.80 0.87
0.61 0.53 0.34 0.33 0.34 0.29 0.26 0.23 0.17 0.15 0.11 0.09 0.07 0.06 0.04 0.03 0.03 0.04 0.05 0.06 0.07 0.10 0.12 0.11 0.10 0.12 0.13 0.14 0.15 0.16 0.19 0.22 0.24 0.27 0.28 0.33 0.46 0.54 0.59 0.64 0.68 0.74 0.81 0.91
0.53 0.48 0.34 0.28 0.29 0.27 0.24 0.18 0.15 0.17 0.16 0.13 0.10 0.07 0.05 0.04 0.04 0.04 0.05 0.05 0.07 0.09 0.11 0.11 0.11 0.11 0.13 0.14 0.15 0.17 0.18 0.20 0.21 0.23 0.26 0.29 0.35 0.46 0.52 0.58 0.62 0.66 0.75 0.89
0.57 0.49 0.45 0.30 0.25 0.22 0.21 0.17 0.14 0.15 0.17 0.18 0.19 0.15 0.09 0.06 0.04 0.05 0.06 0.06 0.09 0.09 0.10 0.11 0.10 0.10 0.13 0.15 0.16 0.21 0.23 0.21 0.21 0.22 0.25 0.28 0.31 0.38 0.42 0.45 0.47 0.49 0.54 0.61
0.39 0.35 0.31 0.24 0.19 0.17 0.16 0.14 0.12 0.11 0.12 0.13 0.16 0.20 0.19 0.15 0.11 0.08 0.08 0.09 0.10 0.12 0.12 0.11 0.10 0.11 0.13 0.16 0.20 0.28 0.32 0.29 0.27 0.25 0.28 0.32 0.32 0.33 0.38 0.40 0.42 0.43 0.45 0.52
0.28 0.26 0.25 0.21 0.16 0.14 0.14 0.11 0.10 0.11 0.13 0.14 0.14 0.17 0.19 0.20 0.18 0.14 0.13 0.14 0.15 0.14 0.14 0.13 0.11 0.13 0.16 0.17 0.19 0.20 0.22 0.25 0.28 0.31 0.29 0.31 0.37 0.44 0.49 0.54 0.49 0.42 0.42 0.48
0.25 0.24 0.25 0.21 0.15 0.13 0.14 0.14 0.13 0.13 0.13 0.13 0.13 0.16 0.17 0.17 0.16 0.15 0.16 0.15 0.14 0.15 0.14 0.13 0.13 0.15 0.18 0.18 0.18 0.19 0.21 0.24 0.32 0.36 0.34 0.33 0.41 0.52 0.58 0.59 0.56 0.47 0.38 0.36
0.23 0.21 0.20 0.20 0.17 0.13 0.14 0.16 0.16 0.15 0.14 0.13 0.13 0.14 0.15 0.16 0.18 0.18 0.17 0.16 0.15 0.16 0.15 0.14 0.14 0.14 0.16 0.18 0.21 0.24 0.27 0.32 0.40 0.44 0.40 0.41 0.45 0.45 0.44 0.47 0.46 0.42 0.39 0.38
0.23 0.26 0.26 0.25 0.21 0.17 0.15 0.16 0.17 0.17 0.16 0.14 0.14 0.15 0.17 0.19 0.22 0.20 0.20 0.20 0.19 0.20 0.19 0.19 0.18 0.18 0.20 0.22 0.24 0.29 0.36 0.36 0.37 0.45 0.45 0.43 0.43 0.40 0.42 0.44 0.41 0.40 0.40 0.39
0.22 0.25 0.30 0.33 0.32 0.26 0.19 0.18 0.21 0.23 0.22 0.18 0.16 0.19 0.21 0.22 0.24 0.22 0.21 0.19 0.19 0.19 0.21 0.22 0.24 0.23 0.24 0.26 0.29 0.31 0.36 0.36 0.35 0.43 0.46 0.42 0.39 0.41 0.45 0.47 0.45 0.41 0.40 0.39
0.22 0.24 0.26 0.31 0.34 0.34 0.28 0.25 0.26 0.26 0.23 0.20 0.20 0.23 0.26 0.24 0.22 0.20 0.20 0.22 0.24 0.24 0.23 0.24 0.27 0.26 0.26 0.29 0.34 0.36 0.38 0.37 0.37 0.40 0.41 0.39 0.38 0.40 0.46 0.49 0.47 0.43 0.41 0.40
0.24 0.26 0.28 0.29 0.29 0.31 0.31 0.29 0.31 0.32 0.28 0.26 0.25 0.27 0.28 0.26 0.24 0.25 0.27 0.28 0.30 0.29 0.29 0.32 0.31 0.28 0.29 0.31 0.37 0.38 0.41 0.42 0.44 0.45 0.45 0.47 0.50 0.48 0.47 0.48 0.49 0.47 0.45 0.44
0.23 0.26 0.29 0.29 0.27 0.27 0.31 0.31 0.31 0.33 0.33 0.30 0.29 0.30 0.31 0.29 0.29 0.32 0.36 0.36 0.33 0.32 0.33 0.36 0.36 0.35 0.35 0.38 0.40 0.38 0.42 0.44 0.46 0.49 0.49 0.49 0.53 0.51 0.48 0.48 0.51 0.54 0.54 0.49
0.21 0.24 0.26 0.25 0.26 0.29 0.32 0.32 0.29 0.27 0.27 0.29 0.28 0.28 0.30 0.32 0.33 0.33 0.32 0.35 0.34 0.36 0.37 0.37 0.37 0.40 0.43 0.44 0.39 0.39 0.43 0.45 0.50 0.55 0.55 0.54 0.55 0.56 0.54 0.52 0.54 0.56 0.59 0.61
0.18 0.21 0.26 0.27 0.28 0.29 0.30 0.32 0.32 0.28 0.25 0.29 0.33 0.36 0.38 0.39 0.37 0.36 0.38 0.36 0.39 0.40 0.34 0.36 0.43 0.49 0.51 0.45 0.43 0.41 0.42 0.45 0.51 0.57 0.60 0.60 0.61 0.61 0.62 0.60 0.62 0.64 0.67 0.73
0.18 0.20 0.25 0.28 0.27 0.28 0.32 0.34 0.34 0.31 0.28 0.31 0.37 0.42 0.45 0.45 0.41 0.39 0.42 0.45 0.49 0.47 0.36 0.36 0.43 0.49 0.51 0.45 0.46 0.45 0.45 0.47 0.51 0.53 0.55 0.60 0.65 0.68 0.69 0.71 0.73 0.73 0.73 0.75
0.20 0.22 0.24 0.27 0.29 0.31 0.32 0.31 0.31 0.31 0.32 0.34 0.36 0.38 0.41 0.43 0.44 0.43 0.41 0.42 0.48 0.49 0.43 0.42 0.47 0.51 0.46 0.45 0.47 0.49 0.50 0.51 0.55 0.59 0.62 0.67 0.71 0.74 0.76 0.76 0.78 0.80 0.82 0.82
0.21 0.22 0.24 0.27 0.29 0.31 0.31 0.31 0.31 0.31 0.32 0.35 0.36 0.36 0.37 0.37 0.38 0.38 0.37 0.38 0.40 0.44 0.44 0.44 0.44 0.46 0.44 0.42 0.44 0.45 0.46 0.48 0.53 0.58 0.61 0.67 0.73 0.77 0.79 0.80 0.80 0.82 0.86 0.90
0.21 0.20 0.21 0.22 0.23 0.25 0.28 0.29 0.32 0.35 0.36 0.35 0.37 0.35 0.35 0.37 0.37 0.37 0.38 0.39 0.40 0.41 0.43 0.46 0.47 0.47 0.47 0.50 0.51 0.47 0.46 0.48 0.49 0.53 0.58 0.63 0.72 0.79 0.83 0.86 0.88 0.90 0.94 0.98

GEFSNGP_prec_meanprecacc_276.txt.gz
Total_Precipitation_Accumulation
0.38 0.39 0.52 0.55 0.47 0.48 0.58 0.68 0.84 0.79 0.74 0.61 0.58 0.63 0.66 0.64 0.59 0.55 0.48 0.41 0.42 0.44 0.50 0.52 0.56 0.60 0.64 0.61 0.66 0.74 0.88 1.01 1.08 1.15 1.19 1.12 1.01 0.96 1.00 0.97 0.95 1.09 1.24 1.37
0.28 0.28 0.37 0.44 0.42 0.43 0.44 0.48 0.59 0.64 0.63 0.49 0.46 0.46 0.48 0.46 0.40 0.41 0.42 0.35 0.32 0.34 0.37 0.39 0.40 0.44 0.45 0.54 0.70 0.74 0.79 0.90 1.10 1.18 1.11 1.03 0.93 0.90 0.90 0.87 0.85 0.94 1.08 1.24
0.43 0.33 0.38 0.61 0.57 0.57 0.59 0.53 0.54 0.48 0.39 0.26 0.26 0.28 0.33 0.34 0.33 0.37 0.36 0.31 0.29 0.30 0.31 0.32 0.35 0.42 0.47 0.55 0.66 0.70 0.75 0.90 1.10 1.12 1.04 0.96 0.97 0.97 0.91 0.87 0.88 0.94 0.98 0.98
0.53 0.52 0.82 0.93 0.65 0.62 0.59 0.39 0.25 0.19 0.17 0.16 0.22 0.21 0.21 0.22 0.25 0.29 0.28 0.24 0.24 0.24 0.25 0.27 0.29 0.35 0.41 0.47 0.51 0.57 0.66 0.78 0.95 0.99 0.97 0.99 0.98 0.94 0.86 0.79 0.75 0.78 0.82 0.87
0.63 0.64 0.78 0.71 0.46 0.39 0.40 0.29 0.13 0.11 0.12 0.14 0.17 0.16 0.13 0.15 0.16 0.17 0.17 0.14 0.15 0.17 0.20 0.22 0.20 0.23 0.28 0.30 0.34 0.40 0.51 0.63 0.74 0.76 0.82 0.85 0.83 0.84 0.79 0.70 0.69 0.69 0.72 0.81
0.76 0.87 0.82 0.43 0.25 0.23 0.33 0.41 0.16 0.12 0.12 0.10 0.11 0.15 0.11 0.08 0.09 0.10 0.10 0.09 0.08 0.10 0.15 0.19 0.17 0.17 0.19 0.23 0.27 0.31 0.42 0.53 0.62 0.66 0.67 0.68 0.75 0.78 0.77 0.72 0.68 0.67 0.69 0.71
0.73 0.93 0.75 0.35 0.23 0.26 0.45 0.52 0.26 0.16 0.12 0.09 0.09 0.09 0.07 0.07 0.07 0.07 0.07 0.07 0.07 0.08 0.13 0.17 0.18 0.17 0.15 0.18 0.22 0.27 0.32 0.42 0.50 0.56 0.62 0.70 0.78 0.80 0.83 0.79 0.74 0.71 0.74 0.75
0.68 0.86 0.78 0.38 0.35 0.44 0.45 0.33 0.25 0.18 0.14 0.10 0.07 0.05 0.04 0.05 0.05 0.06 0.06 0.06 0.06 0.08 0.13 0.15 0.17 0.17 0.15 0.16 0.20 0.22 0.23 0.30 0.42 0.52 0.59 0.69 0.80 0.85 0.83 0.83 0.82 0.82 0.80 0.80
0.76 0.85 0.58 0.40 0.43 0.40 0.34 0.31 0.22 0.15 0.12 0.11 0.08 0.05 0.03 0.04 0.05 0.05 0.06 0.06 0.06 0.08 0.11 0.11 0.13 0.15 0.15 0.17 0.18 0.17 0.19 0.23 0.30 0.37 0.41 0.51 0.62 0.74 0.79 0.78 0.77 0.77 0.83 0.90
0.61 0.54 0.36 0.34 0.35 0.29 0.26 0.23 0.17 0.15 0.11 0.10 0.08 0.06 0.05 0.04 0.04 0.04 0.06 0.06 0.08 0.10 0.12 0.11 0.11 0.13 0.14 0.16 0.16 0.17 0.20 0.23 0.25 0.27 0.29 0.35 0.49 0.56 0.62 0.66 0.70 0.77 0.84 0.93
0.55 0.50 0.36 0.29 0.30 0.28 0.25 0.18 0.15 0.17 0.16 0.14 0.11 0.08 0.05 0.04 0.04 0.04 0.05 0.05 0.07 0.10 0.11 0.12 0.11 0.11 0.14 0.15 0.16 0.17 0.19 0.21 0.21 0.23 0.27 0.31 0.38 0.50 0.57 0.63 0.67 0.72 0.79 0.93
0.60 0.52 0.47 0.32 0.26 0.23 0.21 0.17 0.15 0.15 0.17 0.19 0.19 0.16 0.10 0.06 0.05 0.06 0.06 0.07 0.09 0.10 0.10 0.11 0.11 0.11 0.14 0.16 0.17 0.22 0.24 0.22 0.22 0.23 0.27 0.29 0.34 0.42 0.47 0.49 0.51 0.53 0.58 0.64
0.41 0.38 0.33 0.25 0.20 0.18 0.17 0.14 0.12 0.11 0.12 0.13 0.16 0.20 0.19 0.15 0.11 0.09 0.09 0.10 0.12 0.14 0.13 0.12 0.11 0.11 0.14 0.16 0.21 0.29 0.33 0.30 0.28 0.26 0.30 0.34 0.34 0.36 0.41 0.43 0.45 0.46 0.47 0.54
0.29 0.27 0.28 0.23 0.18 0.15 0.14 0.12 0.10 0.11 0.13 0.14 0.15 0.17 0.19 0.20 0.18 0.15 0.14 0.15 0.16 0.16 0.16 0.14 0.12 0.14 0.17 0.18 0.20 0.21 0.23 0.25 0.28 0.32 0.30 0.33 0.38 0.46 0.51 0.56 0.51 0.44 0.44 0.49
0.26 0.25 0.26 0.22 0.16 0.15 0.16 0.15 0.14 0.14 0.14 0.13 0.13 0.16 0.18 0.17 0.16 0.15 0.16 0.15 0.15 0.16 0.16 0.15 0.14 0.15 0.19 0.19 0.18 0.20 0.22 0.25 0.33 0.37 0.35 0.34 0.43 0.54 0.59 0.61 0.58 0.49 0.40 0.37
0.23 0.21 0.21 0.20 0.18 0.14 0.15 0.17 0.17 0.16 0.14 0.14 0.14 0.14 0.15 0.16 0.18 0.18 0.18 0.17 0.16 0.17 0.16 0.15 0.15 0.15 0.17 0.19 0.22 0.24 0.28 0.33 0.41 0.45 0.41 0.42 0.46 0.47 0.46 0.50 0.49 0.45 0.41 0.40
0.24 0.27 0.27 0.25 0.21 0.18 0.16 0.17 0.18 0.18 0.16 0.15 0.14 0.16 0.17 0.19 0.22 0.21 0.20 0.20 0.20 0.20 0.21 0.21 0.19 0.19 0.21 0.23 0.25 0.30 0.36 0.37 0.38 0.45 0.46 0.43 0.44 0.42 0.44 0.47 0.44 0.41 0.41 0.41
0.22 0.26 0.30 0.33 0.33 0.26 0.20 0.19 0.21 0.24 0.22 0.18 0.16 0.20 0.21 0.23 0.24 0.22 0.21 0.20 0.20 0.20 0.22 0.24 0.24 0.23 0.24 0.27 0.30 0.32 0.36 0.37 0.36 0.43 0.47 0.42 0.40 0.43 0.47 0.49 0.48 0.45 0.43 0.41
0.22 0.24 0.27 0.31 0.34 0.35 0.29 0.25 0.27 0.27 0.24 0.21 0.21 0.24 0.27 0.25 0.22 0.21 0.21 0.23 0.25 0.25 0.25 0.25 0.28 0.26 0.26 0.30 0.35 0.37 0.39 0.38 0.38 0.41 0.42 0.41 0.40 0.42 0.48 0.51 0.49 0.46 0.45 0.44
0.24 0.26 0.28 0.29 0.29 0.32 0.32 0.30 0.32 0.33 0.29 0.27 0.26 0.27 0.29 0.26 0.25 0.26 0.28 0.29 0.31 0.31 0.31 0.34 0.32 0.29 0.29 0.32 0.38 0.39 0.42 0.43 0.45 0.46 0.46 0.49 0.52 0.51 0.49 0.49 0.50 0.49 0.46 0.44
0.23 0.26 0.29 0.29 0.27 0.28 0.32 0.32 0.32 0.34 0.34 0.30 0.29 0.31 0.32 0.30 0.30 0.33 0.37 0.37 0.34 0.32 0.35 0.40 0.39 0.38 0.37 0.41 0.42 0.40 0.44 0.45 0.47 0.51 0.50 0.51 0.55 0.54 0.50 0.49 0.52 0.54 0.55 0.50
0.22 0.25 0.26 0.26 0.27 0.30 0.33 0.33 0.30 0.28 0.28 0.29 0.29 0.29 0.31 0.32 0.33 0.33 0.33 0.35 0.35 0.36 0.39 0.42 0.44 0.48 0.50 0.48 0.42 0.41 0.44 0.46 0.51 0.57 0.58 0.57 0.58 0.59 0.56 0.54 0.55 0.57 0.60 0.62
0.18 0.22 0.26 0.27 0.28 0.29 0.31 0.33 0.33 0.28 0.26 0.30 0.34 0.37 0.39 0.39 0.37 0.37 0.38 0.37 0.40 0.42 0.36 0.39 0.50 0.59 0.62 0.51 0.46 0.44 0.43 0.47 0.52 0.59 0.63 0.63 0.64 0.63 0.63 0.62 0.63 0.65 0.68 0.74
0.19 0.21 0.25 0.29 0.27 0.28 0.32 0.35 0.34 0.31 0.28 0.31 0.38 0.42 0.46 0.46 0.42 0.40 0.44 0.47 0.51 0.50 0.38 0.38 0.47 0.55 0.58 0.51 0.52 0.50 0.48 0.49 0.53 0.55 0.57 0.62 0.68 0.70 0.70 0.72 0.74 0.74 0.73 0.76
0.20 0.23 0.25 0.28 0.30 0.32 0.33 0.31 0.31 0.32 0.32 0.34 0.36 0.38 0.42 0.45 0.47 0.46 0.44 0.45 0.51 0.52 0.46 0.45 0.51 0.55 0.51 0.49 0.52 0.54 0.54 0.54 0.57 0.61 0.63 0.68 0.73 0.76 0.78 0.78 0.79 0.82 0.83 0.84
0.22 0.23 0.25 0.27 0.30 0.32 0.32 0.31 0.31 0.31 0.33 0.35 0.36 0.37 0.38 0.39 0.41 0.42 0.41 0.42 0.44 0.48 0.49 0.49 0.49 0.50 0.48 0.46 0.48 0.49 0.50 0.52 0.56 0.60 0.63 0.69 0.75 0.80 0.81 0.82 0.82 0.85 0.89 0.92
0.22 0.22 0.22 0.22 0.23 0.25 0.28 0.30 0.32 0.36 0.36 0.36 0.38 0.36 0.36 0.38 0.39 0.39 0.41 0.42 0.44 0.45 0.48 0.51 0.51 0.51 0.51 0.54 0.55 0.51 0.49 0.51 0.51 0.54 0.59 0.65 0.74 0.81 0.85 0.88 0.91 0.93 0.97 1.01

GEFSNGP_prec_meanprecacc_282.txt.gz
Total_Precipitation_Accumulation
0.38 0.39 0.52 0.55 0.48 0.48 0.58 0.68 0.84 0.79 0.74 0.61 0.58 0.63 0.66 0.64 0.59 0.56 0.49 0.42 0.43 0.45 0.50 0.53 0.56 0.61 0.64 0.61 0.66 0.74 0.89 1.02 1.09 1.16 1.22 1.15 1.04 0.99 1.04 1.01 0.99 1.13 1.28 1.42
0.29 0.28 0.37 0.44 0.43 0.43 0.44 0.48 0.59 0.64 0.63 0.50 0.46 0.46 0.48 0.46 0.40 0.41 0.42 0.36 0.33 0.34 0.37 0.39 0.41 0.44 0.46 0.54 0.71 0.74 0.81 0.92 1.11 1.19 1.12 1.06 0.96 0.94 0.94 0.91 0.88 0.97 1.11 1.29
0.43 0.34 0.38 0.61 0.58 0.57 0.60 0.53 0.54 0.48 0.39 0.26 0.26 0.29 0.33 0.34 0.33 0.37 0.36 0.32 0.29 0.30 0.32 0.33 0.36 0.43 0.48 0.55 0.67 0.71 0.76 0.90 1.11 1.14 1.05 0.98 1.01 1.02 0.95 0.91 0.92 0.97 1.02 1.03
0.53 0.52 0.82 0.93 0.65 0.63 0.59 0.39 0.26 0.19 0.17 0.16 0.23 0.22 0.21 0.23 0.25 0.29 0.28 0.25 0.24 0.24 0.26 0.27 0.30 0.36 0.42 0.48 0.52 0.58 0.67 0.79 0.96 1.01 1.00 1.02 1.01 0.98 0.90 0.83 0.81 0.85 0.87 0.91
0.63 0.64 0.78 0.71 0.46 0.39 0.40 0.29 0.14 0.11 0.12 0.14 0.17 0.16 0.14 0.15 0.16 0.17 0.17 0.14 0.15 0.17 0.20 0.22 0.20 0.23 0.28 0.31 0.35 0.41 0.52 0.65 0.75 0.78 0.85 0.88 0.85 0.87 0.83 0.75 0.73 0.74 0.77 0.84
0.77 0.87 0.82 0.43 0.25 0.23 0.33 0.41 0.17 0.12 0.12 0.10 0.12 0.16 0.11 0.09 0.09 0.10 0.10 0.09 0.08 0.10 0.15 0.19 0.17 0.17 0.19 0.24 0.28 0.32 0.43 0.55 0.64 0.67 0.69 0.71 0.78 0.82 0.82 0.76 0.72 0.71 0.73 0.74
0.74 0.94 0.75 0.35 0.23 0.27 0.45 0.52 0.26 0.17 0.13 0.10 0.09 0.10 0.08 0.07 0.07 0.07 0.07 0.07 0.07 0.08 0.13 0.17 0.18 0.17 0.15 0.18 0.22 0.27 0.33 0.45 0.53 0.57 0.63 0.72 0.81 0.83 0.87 0.84 0.78 0.76 0.79 0.80
0.69 0.87 0.79 0.38 0.35 0.44 0.45 0.33 0.25 0.19 0.15 0.11 0.07 0.06 0.05 0.05 0.05 0.06 0.06 0.06 0.06 0.08 0.13 0.15 0.17 0.17 0.15 0.17 0.20 0.23 0.24 0.32 0.45 0.54 0.61 0.70 0.82 0.87 0.86 0.86 0.86 0.86 0.85 0.86
0.77 0.86 0.59 0.41 0.43 0.41 0.34 0.31 0.22 0.15 0.12 0.11 0.08 0.06 0.04 0.04 0.05 0.06 0.06 0.06 0.06 0.08 0.11 0.11 0.13 0.15 0.15 0.18 0.18 0.17 0.19 0.24 0.32 0.39 0.44 0.53 0.64 0.75 0.81 0.81 0.80 0.81 0.87 0.95
0.62 0.54 0.36 0.34 0.35 0.30 0.27 0.23 0.18 0.15 0.11 0.10 0.08 0.07 0.05 0.04 0.04 0.05 0.06 0.06 0.08 0.10 0.12 0.11 0.11 0.13 0.15 0.16 0.16 0.17 0.21 0.24 0.26 0.29 0.31 0.37 0.51 0.58 0.63 0.69 0.73 0.80 0.88 0.98
0.57 0.51 0.37 0.30 0.30 0.28 0.25 0.18 0.16 0.18 0.17 0.14 0.11 0.08 0.06 0.05 0.05 0.05 0.05 0.05 0.08 0.10 0.12 0.12 0.11 0.12 0.15 0.16 0.17 0.18 0.20 0.22 0.23 0.25 0.28 0.33 0.40 0.52 0.59 0.64 0.69 0.75 0.83 0.97
0.62 0.53 0.49 0.33 0.27 0.23 0.21 0.17 0.15 0.15 0.17 0.19 0.20 0.16 0.11 0.07 0.06 0.06 0.07 0.07 0.10 0.10 0.11 0.12 0.11 0.11 0.14 0.17 0.18 0.23 0.25 0.23 0.24 0.26 0.29 0.32 0.37 0.45 0.50 0.53 0.54 0.57 0.63 0.70
0.42 0.39 0.35 0.26 0.21 0.18 0.17 0.14 0.12 0.11 0.12 0.13 0.16 0.21 0.20 0.16 0.12 0.10 0.10 0.11 0.12 0.14 0.13 0.12 0.12 0.12 0.15 0.17 0.22 0.31 0.35 0.32 0.30 0.29 0.33 0.37 0.38 0.40 0.45 0.47 0.49 0.50 0.52 0.59
0.30 0.28 0.29 0.24 0.19 0.16 0.15 0.12 0.10 0.11 0.13 0.14 0.15 0.17 0.19 0.21 0.19 0.16 0.15 0.16 0.17 0.17 0.17 0.14 0.13 0.15 0.18 0.20 0.21 0.23 0.26 0.28 0.30 0.34 0.32 0.35 0.41 0.49 0.55 0.60 0.55 0.48 0.48 0.53
0.26 0.25 0.27 0.22 0.17 0.15 0.16 0.16 0.15 0.14 0.14 0.13 0.13 0.16 0.18 0.17 0.16 0.16 0.17 0.16 0.15 0.16 0.16 0.15 0.14 0.16 0.19 0.20 0.20 0.22 0.24 0.28 0.36 0.39 0.37 0.37 0.45 0.56 0.62 0.64 0.61 0.52 0.44 0.42
0.24 0.22 0.21 0.21 0.18 0.14 0.15 0.17 0.18 0.18 0.16 0.15 0.15 0.15 0.16 0.17 0.19 0.19 0.19 0.18 0.17 0.18 0.17 0.16 0.15 0.16 0.18 0.20 0.23 0.26 0.30 0.36 0.43 0.47 0.43 0.44 0.48 0.49 0.48 0.52 0.52 0.47 0.44 0.45
0.24 0.27 0.27 0.25 0.22 0.18 0.16 0.17 0.18 0.18 0.17 0.16 0.16 0.18 0.19 0.21 0.24 0.22 0.22 0.22 0.21 0.22 0.22 0.22 0.20 0.20 0.22 0.24 0.26 0.31 0.38 0.38 0.39 0.46 0.47 0.45 0.45 0.43 0.45 0.48 0.45 0.43 0.43 0.45
0.22 0.26 0.30 0.33 0.33 0.26 0.20 0.19 0.22 0.24 0.23 0.19 0.17 0.21 0.22 0.24 0.25 0.24 0.23 0.22 0.21 0.22 0.23 0.25 0.25 0.24 0.25 0.28 0.30 0.32 0.37 0.38 0.37 0.44 0.47 0.43 0.41 0.43 0.48 0.50 0.49 0.46 0.44 0.44
0.22 0.24 0.27 0.31 0.35 0.35 0.29 0.26 0.27 0.28 0.25 0.22 0.22 0.25 0.27 0.25 0.23 0.22 0.22 0.23 0.26 0.26 0.26 0.26 0.29 0.27 0.27 0.31 0.35 0.37 0.39 0.38 0.38 0.42 0.43 0.41 0.40 0.43 0.48 0.52 0.50 0.47 0.46 0.45
0.24 0.26 0.28 0.29 0.29 0.32 0.32 0.30 0.32 0.33 0.29 0.27 0.27 0.28 0.31 0.28 0.26 0.26 0.28 0.30 0.32 0.31 0.31 0.34 0.32 0.29 0.30 0.33 0.38 0.39 0.42 0.43 0.45 0.47 0.46 0.49 0.52 0.51 0.49 0.50 0.51 0.50 0.47 0.46
0.23 0.26 0.29 0.29 0.27 0.28 0.32 0.32 0.32 0.34 0.34 0.31 0.30 0.32 0.32 0.30 0.31 0.33 0.37 0.37 0.34 0.33 0.35 0.40 0.40 0.38 0.38 0.41 0.42 0.40 0.44 0.46 0.48 0.51 0.51 0.52 0.56 0.55 0.51 0.50 0.52 0.55 0.56 0.51
0.22 0.25 0.26 0.26 0.27 0.30 0.34 0.34 0.31 0.28 0.29 0.30 0.30 0.30 0.31 0.32 0.33 0.33 0.33 0.35 0.35 0.37 0.40 0.43 0.44 0.49 0.51 0.49 0.42 0.42 0.45 0.48 0.52 0.58 0.59 0.57 0.59 0.60 0.58 0.55 0.56 0.58 0.61 0.63
0.18 0.22 0.26 0.28 0.29 0.30 0.31 0.33 0.33 0.29 0.27 0.31 0.35 0.37 0.39 0.40 0.38 0.37 0.38 0.37 0.40 0.42 0.37 0.40 0.52 0.61 0.63 0.52 0.47 0.45 0.44 0.48 0.54 0.61 0.64 0.65 0.66 0.66 0.66 0.64 0.64 0.66 0.69 0.75
0.19 0.21 0.26 0.29 0.28 0.29 0.33 0.35 0.35 0.32 0.29 0.32 0.38 0.43 0.46 0.46 0.42 0.41 0.44 0.48 0.52 0.51 0.40 0.40 0.49 0.58 0.61 0.54 0.54 0.52 0.50 0.51 0.55 0.58 0.60 0.65 0.71 0.74 0.73 0.74 0.76 0.75 0.74 0.78
0.21 0.23 0.26 0.29 0.31 0.33 0.34 0.32 0.32 0.33 0.33 0.35 0.37 0.39 0.42 0.45 0.47 0.47 0.45 0.46 0.52 0.54 0.47 0.47 0.53 0.58 0.54 0.52 0.56 0.58 0.57 0.58 0.61 0.64 0.67 0.72 0.76 0.80 0.81 0.81 0.81 0.83 0.85 0.85
0.22 0.24 0.26 0.29 0.31 0.33 0.33 0.33 0.32 0.32 0.33 0.36 0.37 0.37 0.38 0.40 0.41 0.42 0.42 0.43 0.46 0.50 0.50 0.51 0.52 0.54 0.51 0.49 0.51 0.53 0.54 0.56 0.60 0.64 0.66 0.72 0.79 0.84 0.84 0.84 0.83 0.86 0.91 0.94
0.23 0.24 0.24 0.25 0.25 0.27 0.29 0.31 0.33 0.36 0.37 0.36 0.38 0.37 0.36 0.39 0.39 0.40 0.41 0.43 0.45 0.47 0.50 0.54 0.55 0.54 0.54 0.58 0.58 0.54 0.53 0.55 0.56 0.59 0.64 0.69 0.77 0.85 0.88 0.90 0.93 0.96 0.99 1.03

GEFSNGP_prec_meanprecacc_288.txt.gz
Total_Precipitation_Accumulation
0.38 0.40 0.52 0.55 0.48 0.48 0.58 0.68 0.84 0.79 0.74 0.61 0.58 0.63 0.66 0.64 0.59 0.56 0.49 0.42 0.43 0.45 0.51 0.53 0.57 0.61 0.65 0.62 0.66 0.75 0.89 1.02 1.09 1.16 1.23 1.16 1.05 1.00 1.05 1.03 1.01 1.15 1.29 1.43
0.29 0.28 0.37 0.44 0.43 0.43 0.44 0.49 0.59 0.64 0.63 0.50 0.46 0.46 0.48 0.46 0.40 0.42 0.42 0.36 0.33 0.35 0.38 0.40 0.42 0.45 0.46 0.55 0.71 0.74 0.81 0.92 1.11 1.19 1.13 1.07 0.97 0.95 0.96 0.93 0.91 1.00 1.13 1.30
0.44 0.34 0.39 0.61 0.58 0.58 0.60 0.53 0.54 0.48 0.39 0.26 0.26 0.29 0.33 0.34 0.34 0.38 0.37 0.32 0.29 0.30 0.32 0.33 0.37 0.44 0.48 0.56 0.67 0.71 0.76 0.90 1.11 1.14 1.06 0.99 1.02 1.03 0.96 0.92 0.94 1.01 1.05 1.05
0.54 0.52 0.83 0.93 0.65 0.63 0.59 0.39 0.26 0.19 0.17 0.16 0.23 0.22 0.21 0.23 0.25 0.29 0.28 0.25 0.25 0.25 0.26 0.28 0.31 0.37 0.43 0.49 0.53 0.59 0.67 0.79 0.97 1.02 1.00 1.03 1.02 0.99 0.90 0.84 0.84 0.88 0.91 0.94
0.64 0.65 0.78 0.71 0.46 0.39 0.40 0.30 0.14 0.11 0.12 0.14 0.17 0.17 0.14 0.15 0.16 0.17 0.18 0.15 0.15 0.17 0.21 0.22 0.21 0.24 0.29 0.32 0.35 0.42 0.53 0.65 0.76 0.79 0.86 0.88 0.85 0.88 0.84 0.76 0.75 0.77 0.80 0.87
0.78 0.89 0.83 0.43 0.25 0.23 0.33 0.41 0.17 0.12 0.12 0.10 0.12 0.16 0.11 0.09 0.09 0.10 0.10 0.09 0.08 0.10 0.15 0.19 0.18 0.18 0.20 0.25 0.29 0.33 0.44 0.56 0.65 0.68 0.70 0.73 0.79 0.82 0.83 0.78 0.74 0.74 0.77 0.78
0.76 0.96 0.76 0.35 0.23 0.27 0.45 0.53 0.26 0.17 0.13 0.10 0.09 0.10 0.08 0.08 0.07 0.08 0.07 0.07 0.07 0.08 0.13 0.17 0.19 0.17 0.15 0.19 0.24 0.29 0.35 0.45 0.54 0.57 0.64 0.73 0.82 0.84 0.89 0.85 0.80 0.78 0.82 0.83
0.70 0.89 0.80 0.39 0.36 0.45 0.45 0.33 0.25 0.19 0.15 0.11 0.08 0.06 0.05 0.06 0.06 0.07 0.07 0.06 0.07 0.08 0.13 0.16 0.18 0.17 0.15 0.17 0.21 0.23 0.25 0.32 0.46 0.54 0.61 0.71 0.83 0.88 0.87 0.88 0.88 0.88 0.87 0.88
0.78 0.87 0.60 0.42 0.44 0.42 0.35 0.32 0.23 0.15 0.12 0.11 0.08 0.06 0.05 0.05 0.06 0.07 0.07 0.07 0.07 0.08 0.12 0.11 0.13 0.15 0.16 0.18 0.19 0.18 0.20 0.24 0.32 0.39 0.44 0.54 0.64 0.76 0.82 0.82 0.82 0.83 0.89 0.97
0.63 0.55 0.36 0.35 0.36 0.31 0.27 0.24 0.18 0.15 0.11 0.10 0.08 0.07 0.06 0.05 0.05 0.06 0.07 0.07 0.08 0.10 0.13 0.12 0.11 0.13 0.15 0.17 0.17 0.18 0.21 0.24 0.26 0.29 0.31 0.37 0.52 0.60 0.65 0.70 0.75 0.82 0.89 1.00
0.59 0.53 0.38 0.31 0.31 0.28 0.25 0.19 0.16 0.18 0.17 0.14 0.11 0.08 0.06 0.05 0.05 0.05 0.06 0.06 0.08 0.10 0.12 0.13 0.12 0.13 0.16 0.16 0.17 0.19 0.21 0.22 0.23 0.25 0.29 0.34 0.41 0.54 0.61 0.67 0.72 0.78 0.85 0.99
0.63 0.54 0.50 0.34 0.28 0.24 0.21 0.18 0.15 0.16 0.17 0.19 0.20 0.17 0.11 0.07 0.06 0.06 0.07 0.08 0.10 0.11 0.11 0.12 0.12 0.12 0.15 0.17 0.19 0.23 0.26 0.24 0.25 0.27 0.30 0.33 0.39 0.48 0.54 0.56 0.58 0.61 0.66 0.72
0.43 0.39 0.35 0.27 0.22 0.19 0.17 0.14 0.12 0.12 0.12 0.14 0.16 0.21 0.20 0.16 0.13 0.10 0.10 0.11 0.13 0.14 0.14 0.13 0.12 0.13 0.15 0.18 0.23 0.32 0.36 0.33 0.31 0.30 0.34 0.39 0.40 0.42 0.49 0.51 0.53 0.55 0.57 0.63
0.30 0.29 0.30 0.25 0.20 0.17 0.16 0.12 0.10 0.11 0.14 0.14 0.15 0.17 0.20 0.21 0.19 0.16 0.16 0.16 0.18 0.17 0.17 0.14 0.13 0.15 0.18 0.20 0.22 0.24 0.27 0.30 0.32 0.35 0.35 0.38 0.43 0.50 0.57 0.63 0.58 0.51 0.51 0.58
0.26 0.25 0.27 0.23 0.18 0.17 0.17 0.16 0.15 0.14 0.14 0.13 0.13 0.16 0.18 0.18 0.17 0.16 0.17 0.16 0.16 0.17 0.17 0.16 0.15 0.16 0.20 0.21 0.21 0.22 0.25 0.29 0.37 0.41 0.39 0.39 0.47 0.58 0.63 0.65 0.63 0.55 0.46 0.45
0.24 0.22 0.21 0.22 0.19 0.14 0.16 0.18 0.19 0.19 0.16 0.15 0.15 0.15 0.16 0.17 0.19 0.20 0.20 0.18 0.17 0.18 0.18 0.17 0.16 0.17 0.19 0.21 0.24 0.27 0.31 0.36 0.44 0.48 0.45 0.46 0.50 0.51 0.50 0.54 0.54 0.50 0.48 0.49
0.24 0.27 0.28 0.26 0.23 0.18 0.16 0.17 0.19 0.20 0.19 0.18 0.17 0.19 0.20 0.21 0.24 0.23 0.22 0.23 0.24 0.24 0.24 0.24 0.22 0.22 0.24 0.25 0.27 0.33 0.39 0.39 0.40 0.47 0.47 0.46 0.47 0.45 0.47 0.50 0.48 0.46 0.47 0.49
0.22 0.26 0.31 0.34 0.34 0.27 0.20 0.19 0.22 0.25 0.24 0.20 0.18 0.22 0.23 0.25 0.26 0.25 0.24 0.23 0.23 0.24 0.25 0.28 0.28 0.27 0.28 0.30 0.33 0.35 0.39 0.39 0.38 0.45 0.49 0.44 0.42 0.44 0.49 0.51 0.51 0.48 0.46 0.46
0.22 0.24 0.27 0.32 0.35 0.35 0.29 0.26 0.27 0.28 0.25 0.23 0.22 0.26 0.28 0.26 0.24 0.23 0.23 0.25 0.28 0.29 0.28 0.28 0.31 0.29 0.29 0.33 0.38 0.40 0.42 0.41 0.40 0.43 0.44 0.42 0.41 0.44 0.49 0.53 0.51 0.49 0.48 0.47
0.24 0.26 0.28 0.30 0.30 0.32 0.33 0.30 0.32 0.33 0.30 0.28 0.27 0.29 0.32 0.29 0.27 0.27 0.29 0.30 0.32 0.32 0.32 0.35 0.34 0.30 0.31 0.34 0.40 0.41 0.44 0.45 0.47 0.49 0.48 0.51 0.54 0.53 0.51 0.51 0.52 0.51 0.48 0.47
0.23 0.26 0.29 0.30 0.28 0.29 0.33 0.33 0.32 0.34 0.34 0.31 0.30 0.32 0.33 0.31 0.31 0.34 0.37 0.37 0.34 0.33 0.36 0.40 0.40 0.39 0.38 0.42 0.44 0.42 0.46 0.47 0.49 0.53 0.53 0.54 0.58 0.57 0.53 0.51 0.53 0.56 0.57 0.52
0.22 0.25 0.26 0.26 0.28 0.31 0.34 0.34 0.31 0.29 0.29 0.30 0.30 0.30 0.31 0.33 0.34 0.33 0.33 0.36 0.35 0.37 0.40 0.43 0.45 0.50 0.52 0.50 0.43 0.42 0.46 0.48 0.53 0.60 0.61 0.60 0.61 0.62 0.59 0.56 0.57 0.59 0.62 0.65
0.18 0.22 0.26 0.28 0.29 0.30 0.32 0.34 0.34 0.29 0.27 0.31 0.35 0.38 0.40 0.40 0.38 0.38 0.39 0.37 0.41 0.43 0.37 0.40 0.52 0.62 0.64 0.53 0.48 0.45 0.44 0.48 0.54 0.61 0.65 0.66 0.68 0.68 0.68 0.66 0.66 0.67 0.70 0.77
0.19 0.21 0.26 0.29 0.28 0.29 0.34 0.36 0.35 0.32 0.29 0.32 0.38 0.43 0.47 0.46 0.43 0.41 0.45 0.49 0.53 0.52 0.40 0.41 0.50 0.59 0.62 0.55 0.54 0.53 0.51 0.52 0.57 0.59 0.61 0.66 0.72 0.76 0.76 0.78 0.79 0.78 0.77 0.80
0.21 0.23 0.26 0.29 0.31 0.33 0.34 0.34 0.33 0.33 0.34 0.35 0.38 0.40 0.43 0.46 0.48 0.48 0.46 0.47 0.53 0.55 0.49 0.48 0.54 0.59 0.55 0.53 0.57 0.59 0.59 0.59 0.63 0.67 0.70 0.75 0.79 0.82 0.83 0.84 0.85 0.88 0.89 0.89
0.22 0.24 0.26 0.29 0.31 0.34 0.34 0.34 0.35 0.34 0.35 0.37 0.38 0.38 0.39 0.41 0.42 0.44 0.43 0.44 0.47 0.52 0.52 0.52 0.53 0.55 0.52 0.51 0.53 0.55 0.55 0.58 0.63 0.66 0.69 0.75 0.81 0.85 0.86 0.86 0.86 0.90 0.95 0.98
0.24 0.24 0.25 0.25 0.26 0.28 0.31 0.33 0.36 0.39 0.39 0.39 0.40 0.38 0.38 0.40 0.40 0.41 0.42 0.44 0.46 0.48 0.52 0.55 0.56 0.55 0.55 0.59 0.60 0.56 0.55 0.57 0.57 0.60 0.65 0.71 0.79 0.87 0.91 0.93 0.96 0.99 1.04 1.08